Location: Bakov nad Jizerou
(50.4784°N, 14.9394°E)
Time: 14:56:07
(UTC+00:00)

Cosmos 1536 Rocket - Pass Details

Date: 20 October 2021
Orbit: 605 x 632 km, 82.5° (Epoch: 05 December)

Event Time Altitude Azimuth Distance (km) Brightness Sun altitude
Rises 16:39:48 0° 343° (NNW) 2,881 7.1 -7.3°
Reaches altitude 10° 16:42:09 10° 334° (NNW) 1,969 6.4 -7.7°
Maximum altitude 16:46:07 35° 269° (W) 983 5.4 -8.3°
Drops below altitude 10° 16:50:02 10° 203° (SSW) 1,951 6.5 -9.0°
Sets 16:52:22 0° 195° (SSW) 2,850 7.2 -9.3°
